TimeCDT,TemperatureF,Dew PointF,Humidity,Sea Level PressureIn,VisibilityMPH,Wind Direction,Wind SpeedMPH,Gust SpeedMPH,PrecipitationIn,Events,Conditions,WindDirDegrees,DateUTC
12:15 AM,77.9,71.8,81,29.87,10.0,Calm,Calm,-,N/A,,Clear,0,2013-09-25 05:15:00
12:35 AM,77.5,71.8,82,29.87,10.0,Calm,Calm,-,N/A,,Clear,0,2013-09-25 05:35:00
12:55 AM,77.4,71.6,82,29.87,10.0,Calm,Calm,-,N/A,,Clear,0,2013-09-25 05:55:00
1:15 AM,77.4,71.6,82,29.87,10.0,Calm,Calm,-,N/A,,Clear,0,2013-09-25 06:15:00
1:35 AM,77.0,71.2,82,29.87,10.0,Calm,Calm,-,N/A,,Clear,0,2013-09-25 06:35:00
1:55 AM,76.6,70.9,82,29.87,10.0,Calm,Calm,-,N/A,,Clear,0,2013-09-25 06:55:00
2:35 AM,77.0,70.5,80,29.86,10.0,Calm,Calm,-,N/A,,Clear,0,2013-09-25 07:35:00
2:55 AM,76.8,69.8,79,29.86,10.0,Calm,Calm,-,N/A,,Clear,0,2013-09-25 07:55:00
3:15 AM,76.3,69.3,79,29.86,10.0,Calm,Calm,-,N/A,,Clear,0,2013-09-25 08:15:00
3:35 AM,75.4,69.1,81,29.85,10.0,Calm,Calm,-,N/A,,Clear,0,2013-09-25 08:35:00
3:55 AM,75.4,69.3,81,29.85,10.0,Calm,Calm,-,N/A,,Clear,0,2013-09-25 08:55:00
4:35 AM,74.7,69.4,84,29.85,10.0,Calm,Calm,-,N/A,,Clear,0,2013-09-25 09:35:00
4:55 AM,74.7,69.1,83,29.85,10.0,Calm,Calm,-,N/A,,Clear,0,2013-09-25 09:55:00
5:15 AM,72.9,68.9,87,29.85,10.0,Calm,Calm,-,N/A,,Clear,0,2013-09-25 10:15:00
5:35 AM,73.6,69.1,86,29.85,10.0,Calm,Calm,-,N/A,,Clear,0,2013-09-25 10:35:00
5:55 AM,73.0,68.4,85,29.85,10.0,Calm,Calm,-,N/A,,Clear,0,2013-09-25 10:55:00
6:15 AM,73.4,69.1,86,29.85,10.0,Calm,Calm,-,N/A,,Clear,0,2013-09-25 11:15:00
6:35 AM,72.9,68.9,87,29.85,10.0,Calm,Calm,-,N/A,,Clear,0,2013-09-25 11:35:00
6:55 AM,72.5,68.5,87,29.85,10.0,Calm,Calm,-,N/A,,Clear,0,2013-09-25 11:55:00
7:15 AM,72.7,68.9,88,29.85,10.0,Calm,Calm,-,N/A,,Clear,0,2013-09-25 12:15:00
7:35 AM,72.7,68.9,88,29.85,7.0,Calm,Calm,-,N/A,,Clear,0,2013-09-25 12:35:00
7:55 AM,72.9,68.9,87,29.86,7.0,Calm,Calm,-,N/A,,Clear,0,2013-09-25 12:55:00
8:15 AM,73.8,69.3,86,29.86,10.0,Calm,Calm,-,N/A,,Clear,0,2013-09-25 13:15:00
8:35 AM,75.9,69.6,81,29.87,10.0,Calm,Calm,-,N/A,,Clear,0,2013-09-25 13:35:00
8:55 AM,77.7,69.8,76,29.87,10.0,Calm,Calm,-,N/A,,Clear,0,2013-09-25 13:55:00
9:15 AM,80.1,69.6,70,29.87,10.0,Calm,Calm,-,N/A,,Clear,0,2013-09-25 14:15:00
9:35 AM,82.2,69.3,65,29.88,10.0,Calm,Calm,-,N/A,,Clear,0,2013-09-25 14:35:00
9:55 AM,83.7,68.9,61,29.88,10.0,Calm,Calm,-,N/A,,Clear,0,2013-09-25 14:55:00
10:15 AM,85.1,68.9,58,29.89,7.0,Calm,Calm,-,N/A,,Clear,0,2013-09-25 15:15:00
10:35 AM,86.5,67.6,53,29.89,7.0,Calm,Calm,-,N/A,,Clear,0,2013-09-25 15:35:00
10:55 AM,87.6,67.1,50,29.89,-9999.0,Calm,Calm,-,N/A,,Clear,0,2013-09-25 15:55:00
11:15 AM,88.7,67.6,50,29.89,7.0,Calm,Calm,-,N/A,,Clear,0,2013-09-25 16:15:00
11:35 AM,89.8,66.9,47,29.89,7.0,Calm,Calm,-,N/A,,Clear,0,2013-09-25 16:35:00
11:55 AM,90.1,66.0,45,29.88,7.0,Calm,Calm,-,N/A,,Clear,0,2013-09-25 16:55:00
12:15 PM,90.5,66.7,45,29.88,7.0,Calm,Calm,-,N/A,,Clear,0,2013-09-25 17:15:00
12:35 PM,91.4,66.9,44,29.87,7.0,Calm,Calm,-,N/A,,Scattered Clouds,0,2013-09-25 17:35:00
1:15 PM,92.7,65.8,41,29.85,7.0,Calm,Calm,-,N/A,,Scattered Clouds,0,2013-09-25 18:15:00
1:35 PM,93.2,63.0,36,29.85,7.0,Calm,Calm,-,N/A,,Clear,0,2013-09-25 18:35:00
1:55 PM,93.4,63.9,37,29.84,7.0,ESE,4.6,-,N/A,,Clear,120,2013-09-25 18:55:00
2:15 PM,93.4,63.0,36,29.82,7.0,ESE,5.8,-,N/A,,Clear,110,2013-09-25 19:15:00
2:35 PM,94.1,64.8,38,29.81,7.0,SSE,5.8,-,N/A,,Scattered Clouds,160,2013-09-25 19:35:00
2:55 PM,94.6,62.2,34,29.80,7.0,Calm,Calm,-,N/A,,Scattered Clouds,0,2013-09-25 19:55:00
3:15 PM,94.3,61.5,34,29.79,7.0,Calm,Calm,-,N/A,,Scattered Clouds,0,2013-09-25 20:15:00
3:55 PM,95.2,60.3,31,29.78,7.0,Calm,Calm,-,N/A,,Scattered Clouds,0,2013-09-25 20:55:00
4:15 PM,95.4,61.0,32,29.77,10.0,Calm,Calm,-,N/A,,Clear,0,2013-09-25 21:15:00
4:35 PM,95.0,61.5,33,29.77,7.0,Calm,Calm,-,N/A,,Scattered Clouds,0,2013-09-25 21:35:00
4:55 PM,95.0,60.1,31,29.77,10.0,Calm,Calm,-,N/A,,Scattered Clouds,0,2013-09-25 21:55:00
5:15 PM,95.4,60.8,32,29.77,10.0,East,4.6,-,N/A,,Mostly Cloudy,90,2013-09-25 22:15:00
5:35 PM,94.3,65.7,39,29.77,10.0,East,12.7,-,N/A,,Overcast,100,2013-09-25 22:35:00
5:55 PM,93.2,66.6,41,29.77,10.0,East,10.4,-,N/A,,Mostly Cloudy,90,2013-09-25 22:55:00
6:15 PM,91.8,68.0,46,29.77,10.0,East,10.4,-,N/A,,Mostly Cloudy,100,2013-09-25 23:15:00
6:35 PM,90.1,68.2,48,29.78,10.0,ESE,10.4,-,N/A,,Scattered Clouds,110,2013-09-25 23:35:00
6:55 PM,89.4,69.3,51,29.78,10.0,ESE,15.0,19.6,N/A,,Mostly Cloudy,110,2013-09-25 23:55:00
7:15 PM,87.6,70.2,56,29.79,10.0,ESE,11.5,-,N/A,,Scattered Clouds,110,2013-09-26 00:15:00
7:35 PM,86.4,70.3,59,29.79,10.0,ESE,10.4,-,N/A,,Clear,110,2013-09-26 00:35:00
7:55 PM,85.5,70.5,61,29.80,10.0,NE,11.5,-,N/A,,Clear,50,2013-09-26 00:55:00
8:15 PM,84.7,71.2,64,29.80,10.0,ESE,9.2,-,N/A,,Clear,120,2013-09-26 01:15:00
8:35 PM,84.0,71.6,66,29.80,10.0,ESE,10.4,-,N/A,,Clear,110,2013-09-26 01:35:00
8:55 PM,83.3,72.0,68,29.81,10.0,Calm,Calm,-,N/A,,Clear,0,2013-09-26 01:55:00
9:15 PM,82.8,72.5,71,29.82,10.0,Calm,Calm,-,N/A,,Clear,0,2013-09-26 02:15:00
9:35 PM,82.4,72.5,72,29.82,10.0,Calm,Calm,-,N/A,,Clear,0,2013-09-26 02:35:00
9:55 PM,81.7,72.9,74,29.82,10.0,Calm,Calm,-,N/A,,Clear,0,2013-09-26 02:55:00
10:15 PM,81.0,73.4,78,29.83,10.0,Calm,Calm,-,N/A,,Clear,0,2013-09-26 03:15:00
10:35 PM,80.1,73.4,80,29.83,10.0,Calm,Calm,-,N/A,,Clear,0,2013-09-26 03:35:00
10:55 PM,79.2,73.4,82,29.84,10.0,Calm,Calm,-,N/A,,Clear,0,2013-09-26 03:55:00
11:15 PM,78.8,73.0,82,29.84,10.0,Calm,Calm,-,N/A,,Clear,0,2013-09-26 04:15:00
11:35 PM,78.3,72.9,83,29.84,10.0,Calm,Calm,-,N/A,,Clear,0,2013-09-26 04:35:00
11:55 PM,78.1,72.9,84,29.84,10.0,Calm,Calm,-,N/A,,Clear,0,2013-09-26 04:55:00